DW7831 Weather Reports


Display with metric or nautical units.
time (UTC)temp
F
wind
direction
speed
MPH
gust
MPH
rain 1hr
in
rain 24hr
in
rain mn
in
humidity
%
barometer
mb
20260507191540 48 334 3.0 0.0 0.00 0.00 0.02 52 1010.0
20260507190037 49 305 2.0 0.0 0.00 0.00 0.02 50 1010.1
20260507184532 48 280 2.0 0.0 0.00 0.00 0.02 53 1010.2
20260507183028 48 294 4.0 0.0 0.00 0.00 0.02 51 1010.3
20260507181529 48 263 3.0 0.0 0.00 0.00 0.02 50 1010.4
20260507180026 48 252 5.0 0.0 0.00 0.00 0.02 53 1010.4
20260507174523 47 290 3.0 0.0 0.00 0.00 0.02 51 1010.6
20260507173030 48 292 4.0 0.0 0.00 0.00 0.02 50 1010.4
20260507171517 48 313 3.0 0.0 0.00 0.00 0.02 51 1010.7
20260507170016 48 284 4.0 0.0 0.00 0.00 0.02 50 1010.7
20260507164510 48 290 4.0 0.0 0.00 0.00 0.02 50 1010.7
20260507163010 48 257 3.0 0.0 0.00 0.00 0.02 50 1010.9
20260507161503 47 287 4.0 0.0 0.00 0.00 0.02 51 1011.0
20260507160100 47 234 4.0 0.0 0.00 0.00 0.02 52 1011.0
20260507154559 47 24 3.0 0.0 0.00 0.00 0.02 52 1011.1
20260507153051 46 234 4.0 0.0 0.00 0.00 0.02 54 1011.7
20260507151547 46 286 4.0 0.0 0.00 0.00 0.02 55 1011.6
20260507150044 45 290 3.0 0.0 0.00 0.00 0.02 54 1011.5
20260507144539 45 323 7.0 0.0 0.00 0.00 0.02 54 1011.6
20260507143037 44 304 6.0 0.0 0.00 0.00 0.01 56 1011.8
20260507141530 44 236 6.0 0.0 0.00 0.00 0.01 57 1011.5
20260507140032 43 284 5.0 0.0 0.00 0.00 0.01 57 1011.5
20260507134528 43 309 4.0 0.0 0.00 0.00 0.01 57 1011.7
20260507133025 42 274 4.0 0.0 0.00 0.00 0.01 58 1011.5
20260507131523 41 287 4.0 0.0 0.00 0.00 0.01 59 1011.5
20260507130014 41 285 4.0 0.0 0.00 0.00 0.01 59 1011.7
20260507124511 40 269 4.0 0.0 0.00 0.00 0.01 59 1011.5
20260507123008 40 280 1.0 0.0 0.00 0.00 0.01 59 1011.5
20260507121501 39 244 3.0 0.0 0.00 0.00 0.01 59 1011.6
20260507120103 38 229 3.0 0.0 0.00 0.00 0.01 59 1011.6
20260507114634 38 271 1.0 0.0 0.00 0.00 0.01 56 1011.4
20260507113048 38 263 1.0 0.0 0.00 0.00 0.01 51 1011.6
20260507111546 37 259 1.0 0.0 0.00 0.00 0.01 44 1011.2
20260507110041 36 259 1.0 0.0 0.00 0.00 0.01 36 1011.2
20260507104537 35 261 1.0 0.0 0.00 0.00 0.01 30 1011.1
20260507103033 35 265 0.0 0.0 0.00 0.00 0.01 28 1011.1
20260507101529 35 269 0.0 0.0 0.00 0.00 0.01 24 1010.8
20260507100024 36 269 0.0 0.0 0.00 0.00 0.01 21 1010.6
20260507094521 36 270 1.0 0.0 0.00 0.00 0.01 18 1010.8
20260507093016 36 270 0.0 0.0 0.00 0.00 0.01 18 1010.8
20260507091512 37 270 1.0 0.0 0.00 0.00 0.01 12 1010.5
20260507090020 38 270 1.0 0.0 0.00 0.00 0.01 100 1010.5
20260507084504 38 270 1.0 0.0 0.00 0.00 0.01 100 1010.8
20260507083001 39 271 2.0 0.0 0.00 0.00 0.01 100 1010.4
20260507081557 39 268 1.0 0.0 0.00 0.00 0.01 100 1010.4
20260507080118 40 288 2.0 0.0 0.00 0.00 0.01 100 1010.4
20260507074554 40 287 2.0 0.0 0.00 0.00 0.01 100 1010.5
20260507073052 40 258 1.0 0.0 0.00 0.00 0.01 100 1010.5
20260507071543 40 283 3.0 0.0 0.00 0.00 0.00 100 1010.3
20260507070038 41 258 4.0 0.0 0.00 0.00 0.00 100 1010.0
20260507064533 41 254 1.0 0.0 0.00 0.00 0.00 100 1010.0
20260507063029 41 237 2.0 0.0 0.00 0.00 0.00 100 1009.8
20260507061525 40 277 1.0 0.0 0.00 0.00 0.00 100 1009.7
20260507060022 40 277 0.0 0.0 0.00 0.00 0.00 100 1009.6
20260507054521 40 277 0.0 0.0 0.00 0.00 0.00 100 1009.6
20260507053014 40 277 0.0 0.0 0.00 0.00 0.00 100 1009.8
20260507051510 40 277 0.0 0.0 0.00 0.00 0.00 100 1010.0
20260507050006 41 277 0.0 0.0 0.00 0.00 0.00 100 1009.6
20260507044502 41 277 0.0 0.0 0.00 0.00 0.00 100 1010.0
20260507043058 41 277 0.0 0.0 0.00 0.00 0.00 100 1009.9
20260507041555 41 277 0.0 0.0 0.00 0.00 0.00 100 1010.3
20260507040056 42 277 0.0 0.0 0.00 0.00 0.00 100 1009.7
20260507034555 42 277 0.0 0.0 0.00 0.00 0.64 100 1010.2
20260507033049 42 277 0.0 0.0 0.00 0.00 0.64 100 1009.8
20260507031541 42 277 0.0 0.0 0.00 0.00 0.64 100 1010.1
20260507030036 42 277 1.0 0.0 0.00 0.00 0.64 100 1010.0
20260507024532 42 275 0.0 0.0 0.00 0.00 0.64 100 1010.2
20260507023027 42 275 2.0 0.0 0.00 0.00 0.64 100 1010.0
20260507021524 43 268 2.0 0.0 0.00 0.00 0.64 100 1010.1
20260507020021 43 266 3.0 0.0 0.00 0.00 0.64 100 1010.2
20260507014523 43 272 2.0 0.0 0.00 0.00 0.64 100 1010.2
20260507013023 43 271 0.0 0.0 0.00 0.00 0.64 100 1009.9
20260507011511 43 269 0.0 0.0 0.00 0.00 0.64 100 1009.7
20260507010004 44 270 2.0 0.0 0.00 0.00 0.64 100 1009.6
20260507004607 44 275 1.0 0.0 0.00 0.00 0.64 100 1009.4
20260507003055 44 275 2.0 0.0 0.00 0.00 0.64 100 1009.3
20260507001552 44 265 1.0 0.0 0.00 0.00 0.63 100 1009.0
20260507000051 44 265 1.0 0.0 0.00 0.00 0.63 100 1009.0
20260506234548 44 273 3.0 0.0 0.00 0.00 0.63 100 1008.8
20260506233051 45 267 0.0 0.0 0.00 0.00 0.63 100 1008.6
20260506231535 45 268 2.0 0.0 0.00 0.00 0.63 100 1008.2
20260506230040 45 261 1.0 0.0 0.00 0.00 0.63 100 1007.9
20260506224533 46 259 1.0 0.0 0.00 0.00 0.63 100 1007.9
20260506223031 46 244 1.0 0.0 0.00 0.00 0.63 100 1008.1
20260506221521 47 286 1.0 0.0 0.00 0.00 0.62 100 1007.6
20260506220019 48 267 1.0 0.0 0.00 0.00 0.62 100 1007.1
20260506214526 49 236 2.0 0.0 0.00 0.00 0.60 100 1006.6
20260506213016 49 224 2.0 0.0 0.00 0.00 0.60 100 1006.3
20260506211506 50 252 2.0 0.0 0.00 0.00 0.60 100 1005.7
20260506210003 52 308 4.0 0.0 0.00 0.00 0.60 100 1005.5
20260506204557 55 268 6.0 0.0 0.00 0.00 0.59 100 1005.2
20260506203054 57 229 4.0 0.0 0.00 0.00 0.56 100 1004.4
20260506201549 57 205 5.0 0.0 0.00 0.00 0.56 100 1004.4
20260506200047 57 243 2.0 0.0 0.00 0.00 0.56 100 1004.3
20260506194542 57 233 2.0 0.0 0.00 0.00 0.56 100 1004.5
20260506193039 57 236 1.0 0.0 0.00 0.00 0.56 100 1004.6